Lavinia, Iowa
Current Conditions -  °F | °C
As of 10:15 AM on Wednesday 28 Jan 2015 (Local Time) from KCIN Reporting Station
Haze Haze  
Wind Chill: 20°   Ceiling: Unl
Heat Index: 32°   Visibility: 4mi
Dew Point: 30°   Wind: 18mph
Humidity: 93%   Direction: 150°SSE
Pressure: 29.86"   Gusts: 24mph
Location:  42.385°N, 94.6304°W
Report Text: KCIN 281615Z AUTO 15016G21KT 4SM BR SCT009 00/M01 A2986 RMK AO2
Loading
Personal Weather Stations






























Interactive Weather Map New forecast layout! Learn more

10-Day Weather Forecast

Advertisements
Track Severe Weather on mobile